Year,Month,Day,Hour,Minute,Value (Times are PST for temperature in C)
2005,07,14,00,00,14.20
2005,07,14,00,01,14.20
2005,07,14,00,02,14.20
2005,07,14,00,03,14.20
2005,07,14,00,04,14.20
2005,07,14,00,05,14.20
2005,07,14,00,06,14.20
2005,07,14,00,07,14.20
2005,07,14,00,08,14.10
2005,07,14,00,09,14.10
2005,07,14,00,10,14.10
2005,07,14,00,11,14.10
2005,07,14,00,12,14.10
2005,07,14,00,13,14.00
2005,07,14,00,14,14.00
2005,07,14,00,15,14.00
2005,07,14,00,16,14.00
2005,07,14,00,17,14.00
2005,07,14,00,18,14.00
2005,07,14,00,19,14.00
2005,07,14,00,20,14.00
2005,07,14,00,21,13.90
2005,07,14,00,22,13.90
2005,07,14,00,23,13.90
2005,07,14,00,24,13.90
2005,07,14,00,25,13.80
2005,07,14,00,26,13.80
2005,07,14,00,27,13.80
2005,07,14,00,28,13.80
2005,07,14,00,29,13.70
2005,07,14,00,30,13.70
2005,07,14,00,31,13.70
2005,07,14,00,32,13.70
2005,07,14,00,33,13.70
2005,07,14,00,34,13.70
2005,07,14,00,35,13.70
2005,07,14,00,36,13.60
2005,07,14,00,37,13.60
2005,07,14,00,38,13.60
2005,07,14,00,39,13.60
2005,07,14,00,40,13.60
2005,07,14,00,41,13.50
2005,07,14,00,42,13.50
2005,07,14,00,43,13.50
2005,07,14,00,44,13.50
2005,07,14,00,45,13.50
2005,07,14,00,46,13.50
2005,07,14,00,47,13.50
2005,07,14,00,48,13.50
2005,07,14,00,49,13.50
2005,07,14,00,50,13.50
2005,07,14,00,51,13.40
2005,07,14,00,52,13.40
2005,07,14,00,53,13.40
2005,07,14,00,54,13.40
2005,07,14,00,55,13.40
2005,07,14,00,56,13.40
2005,07,14,00,57,13.40
2005,07,14,00,58,13.30
2005,07,14,00,59,13.30
2005,07,14,01,00,13.30
2005,07,14,01,01,13.30
2005,07,14,01,02,13.30
2005,07,14,01,03,13.30
2005,07,14,01,04,13.30
2005,07,14,01,05,13.30
2005,07,14,01,06,13.30
2005,07,14,01,07,13.30
2005,07,14,01,08,13.30
2005,07,14,01,09,13.30
2005,07,14,01,10,13.30
2005,07,14,01,11,13.30
2005,07,14,01,12,13.20
2005,07,14,01,13,13.20
2005,07,14,01,14,13.20
2005,07,14,01,15,13.20
2005,07,14,01,16,13.20
2005,07,14,01,17,13.20
2005,07,14,01,18,13.20
2005,07,14,01,19,13.20
2005,07,14,01,20,13.20
2005,07,14,01,21,13.20
2005,07,14,01,22,13.10
2005,07,14,01,23,13.10
2005,07,14,01,24,13.10
2005,07,14,01,25,13.10
2005,07,14,01,26,13.10
2005,07,14,01,27,13.00
2005,07,14,01,28,13.00
2005,07,14,01,29,13.00
2005,07,14,01,30,13.00
2005,07,14,01,31,13.00
2005,07,14,01,32,12.90
2005,07,14,01,33,12.90
2005,07,14,01,34,12.90
2005,07,14,01,35,12.90
2005,07,14,01,36,12.90
2005,07,14,01,37,12.80
2005,07,14,01,38,12.80
2005,07,14,01,39,12.80
2005,07,14,01,40,12.80
2005,07,14,01,41,12.80
2005,07,14,01,42,12.80
2005,07,14,01,43,12.80
2005,07,14,01,44,12.80
2005,07,14,01,45,12.70
2005,07,14,01,46,12.70
2005,07,14,01,47,12.70
2005,07,14,01,48,12.70
2005,07,14,01,49,12.70
2005,07,14,01,50,12.60
2005,07,14,01,51,12.60
2005,07,14,01,52,12.60
2005,07,14,01,53,12.70
2005,07,14,01,54,12.70
2005,07,14,01,55,12.70
2005,07,14,01,56,12.60
2005,07,14,01,57,12.60
2005,07,14,01,58,12.60
2005,07,14,01,59,12.60
2005,07,14,02,00,12.60
2005,07,14,02,01,12.60
2005,07,14,02,02,12.60
2005,07,14,02,03,12.60
2005,07,14,02,04,12.50
2005,07,14,02,05,12.50
2005,07,14,02,06,12.50
2005,07,14,02,07,12.50
2005,07,14,02,08,12.50
2005,07,14,02,09,12.50
2005,07,14,02,10,12.50
2005,07,14,02,11,12.50
2005,07,14,02,12,12.40
2005,07,14,02,13,12.40
2005,07,14,02,14,12.40
2005,07,14,02,15,12.40
2005,07,14,02,16,12.40
2005,07,14,02,17,12.50
2005,07,14,02,18,12.50
2005,07,14,02,19,12.60
2005,07,14,02,20,12.60
2005,07,14,02,21,12.60
2005,07,14,02,22,12.60
2005,07,14,02,23,12.50
2005,07,14,02,24,12.50
2005,07,14,02,25,12.50
2005,07,14,02,26,12.50
2005,07,14,02,27,12.50
2005,07,14,02,28,12.50
2005,07,14,02,29,12.40
2005,07,14,02,30,12.40
2005,07,14,02,31,12.40
2005,07,14,02,32,12.40
2005,07,14,02,33,12.40
2005,07,14,02,34,12.40
2005,07,14,02,35,12.30
2005,07,14,02,36,12.40
2005,07,14,02,37,12.40
2005,07,14,02,38,12.40
2005,07,14,02,39,12.30
2005,07,14,02,40,12.30
2005,07,14,02,41,12.30
2005,07,14,02,42,12.30
2005,07,14,02,43,12.30
2005,07,14,02,44,12.30
2005,07,14,02,45,12.30
2005,07,14,02,46,12.20
2005,07,14,02,47,12.20
2005,07,14,02,48,12.20
2005,07,14,02,49,12.20
2005,07,14,02,50,12.20
2005,07,14,02,51,12.10
2005,07,14,02,52,12.10
2005,07,14,02,53,12.10
2005,07,14,02,54,12.10
2005,07,14,02,55,12.00
2005,07,14,02,56,12.00
2005,07,14,02,57,12.00
2005,07,14,02,58,12.00
2005,07,14,02,59,12.00
2005,07,14,03,00,12.00
2005,07,14,03,01,12.00
2005,07,14,03,02,12.00
2005,07,14,03,03,12.00
2005,07,14,03,04,12.00
2005,07,14,03,05,12.00
2005,07,14,03,06,12.00
2005,07,14,03,07,12.00
2005,07,14,03,08,12.00
2005,07,14,03,09,12.00
2005,07,14,03,10,12.00
2005,07,14,03,11,12.00
2005,07,14,03,12,12.00
2005,07,14,03,13,12.00
2005,07,14,03,14,12.00
2005,07,14,03,15,12.00
2005,07,14,03,16,12.00
2005,07,14,03,17,12.00
2005,07,14,03,18,12.00
2005,07,14,03,19,12.00
2005,07,14,03,20,12.00
2005,07,14,03,21,12.00
2005,07,14,03,22,12.00
2005,07,14,03,23,12.00
2005,07,14,03,24,12.00
2005,07,14,03,25,12.00
2005,07,14,03,26,12.00
2005,07,14,03,27,12.00
2005,07,14,03,28,12.00
2005,07,14,03,29,12.00
2005,07,14,03,30,11.90
2005,07,14,03,31,11.90
2005,07,14,03,32,11.90
2005,07,14,03,33,11.90
2005,07,14,03,34,11.90
2005,07,14,03,35,11.90
2005,07,14,03,36,11.90
2005,07,14,03,37,11.80
2005,07,14,03,38,11.80
2005,07,14,03,39,11.80
2005,07,14,03,40,11.80
2005,07,14,03,41,11.80
2005,07,14,03,42,11.80
2005,07,14,03,43,11.80
2005,07,14,03,44,11.80
2005,07,14,03,45,11.80
2005,07,14,03,46,11.70
2005,07,14,03,47,11.70
2005,07,14,03,48,11.70
2005,07,14,03,49,11.70
2005,07,14,03,50,11.70
2005,07,14,03,51,11.70
2005,07,14,03,52,11.70
2005,07,14,03,53,11.70
2005,07,14,03,54,11.60
2005,07,14,03,55,11.60
2005,07,14,03,56,11.60
2005,07,14,03,57,11.60
2005,07,14,03,58,11.60
2005,07,14,03,59,11.60
2005,07,14,04,00,11.60
2005,07,14,04,01,11.60
2005,07,14,04,02,11.60
2005,07,14,04,03,11.60
2005,07,14,04,04,11.60
2005,07,14,04,05,11.60
2005,07,14,04,06,11.60
2005,07,14,04,07,11.60
2005,07,14,04,08,11.60
2005,07,14,04,09,11.60
2005,07,14,04,10,11.60
2005,07,14,04,11,11.60
2005,07,14,04,12,11.60
2005,07,14,04,13,11.60
2005,07,14,04,14,11.50
2005,07,14,04,15,11.40
2005,07,14,04,16,11.40
2005,07,14,04,17,11.40
2005,07,14,04,18,11.40
2005,07,14,04,19,11.40
2005,07,14,04,20,11.40
2005,07,14,04,21,11.40
2005,07,14,04,22,11.40
2005,07,14,04,23,11.40
2005,07,14,04,24,11.50
2005,07,14,04,25,11.60
2005,07,14,04,26,11.60
2005,07,14,04,27,11.60
2005,07,14,04,28,11.60
2005,07,14,04,29,11.60
2005,07,14,04,30,11.60
2005,07,14,04,31,11.60
2005,07,14,04,32,11.60
2005,07,14,04,33,11.60
2005,07,14,04,34,11.60
2005,07,14,04,35,11.60
2005,07,14,04,36,11.60
2005,07,14,04,37,11.60
2005,07,14,04,38,11.60
2005,07,14,04,39,11.60
2005,07,14,04,40,11.60
2005,07,14,04,41,11.60
2005,07,14,04,42,11.60
2005,07,14,04,43,11.60
2005,07,14,04,44,11.60
2005,07,14,04,45,11.50
2005,07,14,04,46,11.40
2005,07,14,04,47,11.40
2005,07,14,04,48,11.40
2005,07,14,04,49,11.40
2005,07,14,04,50,11.40
2005,07,14,04,51,11.40
2005,07,14,04,52,11.40
2005,07,14,04,53,11.40
2005,07,14,04,54,11.40
2005,07,14,04,55,11.40
2005,07,14,04,56,11.40
2005,07,14,04,57,11.40
2005,07,14,04,58,11.30
2005,07,14,04,59,11.30
2005,07,14,05,00,11.30
2005,07,14,05,01,11.30
2005,07,14,05,02,11.30
2005,07,14,05,03,11.30
2005,07,14,05,04,11.30
2005,07,14,05,05,11.20
2005,07,14,05,06,11.20
2005,07,14,05,07,11.20
2005,07,14,05,08,11.20
2005,07,14,05,09,11.20
2005,07,14,05,10,11.20
2005,07,14,05,11,11.20
2005,07,14,05,12,11.20
2005,07,14,05,13,11.20
2005,07,14,05,14,11.20
2005,07,14,05,15,11.10
2005,07,14,05,16,11.10
2005,07,14,05,17,11.10
2005,07,14,05,18,11.10
2005,07,14,05,19,11.10
2005,07,14,05,20,11.10
2005,07,14,05,21,11.10
2005,07,14,05,22,11.10
2005,07,14,05,23,11.10
2005,07,14,05,24,11.10
2005,07,14,05,25,11.10
2005,07,14,05,26,11.10
2005,07,14,05,27,11.10
2005,07,14,05,28,11.10
2005,07,14,05,29,11.10
2005,07,14,05,30,11.10
2005,07,14,05,31,11.10
2005,07,14,05,32,11.10
2005,07,14,05,33,11.10
2005,07,14,05,34,11.10
2005,07,14,05,35,11.10
2005,07,14,05,36,11.10
2005,07,14,05,37,11.10
2005,07,14,05,38,11.10
2005,07,14,05,39,11.10
2005,07,14,05,40,11.10
2005,07,14,05,41,11.10
2005,07,14,05,42,11.10
2005,07,14,05,43,11.10
2005,07,14,05,44,11.10
2005,07,14,05,45,11.10
2005,07,14,05,46,11.10
2005,07,14,05,47,11.10
2005,07,14,05,48,11.00
2005,07,14,05,49,10.90
2005,07,14,05,50,10.90
2005,07,14,05,51,10.90
2005,07,14,05,52,10.90
2005,07,14,05,53,10.90
2005,07,14,05,54,10.90
2005,07,14,05,55,10.90
2005,07,14,05,56,10.90
2005,07,14,05,57,11.00
2005,07,14,05,58,11.10
2005,07,14,05,59,11.10
2005,07,14,06,00,11.10
2005,07,14,06,01,11.10
2005,07,14,06,02,11.10
2005,07,14,06,03,11.10
2005,07,14,06,04,11.20
2005,07,14,06,05,11.20
2005,07,14,06,06,11.30
2005,07,14,06,07,11.30
2005,07,14,06,08,11.40
2005,07,14,06,09,11.40
2005,07,14,06,10,11.40
2005,07,14,06,11,11.60
2005,07,14,06,12,11.60
2005,07,14,06,13,11.60
2005,07,14,06,14,11.60
2005,07,14,06,15,11.70
2005,07,14,06,16,11.80
2005,07,14,06,17,11.80
2005,07,14,06,18,12.00
2005,07,14,06,19,12.00
2005,07,14,06,20,12.10
2005,07,14,06,21,12.20
2005,07,14,06,22,12.30
2005,07,14,06,23,12.30
2005,07,14,06,24,12.40
2005,07,14,06,25,12.40
2005,07,14,06,26,12.50
2005,07,14,06,27,12.60
2005,07,14,06,28,12.70
2005,07,14,06,29,12.70
2005,07,14,06,30,12.80
2005,07,14,06,31,12.80
2005,07,14,06,32,12.80
2005,07,14,06,33,12.80
2005,07,14,06,34,12.80
2005,07,14,06,35,12.80
2005,07,14,06,36,12.80
2005,07,14,06,37,12.80
2005,07,14,06,38,12.80
2005,07,14,06,39,12.80
2005,07,14,06,40,12.80
2005,07,14,06,41,12.80
2005,07,14,06,42,12.80
2005,07,14,06,43,12.80
2005,07,14,06,44,12.80
2005,07,14,06,45,12.80
2005,07,14,06,46,12.90
2005,07,14,06,47,12.90
2005,07,14,06,48,12.90
2005,07,14,06,49,13.00
2005,07,14,06,50,13.00
2005,07,14,06,51,13.10
2005,07,14,06,52,13.20
2005,07,14,06,53,13.30
2005,07,14,06,54,13.30
2005,07,14,06,55,13.40
2005,07,14,06,56,13.50
2005,07,14,06,57,13.50
2005,07,14,06,58,13.60
2005,07,14,06,59,13.70
2005,07,14,07,00,13.70
2005,07,14,07,01,13.80
2005,07,14,07,02,13.90
2005,07,14,07,03,14.00
2005,07,14,07,04,14.20
2005,07,14,07,05,14.30
2005,07,14,07,06,14.40
2005,07,14,07,07,14.50
2005,07,14,07,08,14.50
2005,07,14,07,09,14.60
2005,07,14,07,10,14.70
2005,07,14,07,11,14.80
2005,07,14,07,12,14.80
2005,07,14,07,13,14.80
2005,07,14,07,14,14.90
2005,07,14,07,15,14.90
2005,07,14,07,16,14.90
2005,07,14,07,17,15.00
2005,07,14,07,18,15.10
2005,07,14,07,19,15.10
2005,07,14,07,20,15.20
2005,07,14,07,21,15.30
2005,07,14,07,22,15.30
2005,07,14,07,23,15.40
2005,07,14,07,24,15.40
2005,07,14,07,25,15.50
2005,07,14,07,26,15.50
2005,07,14,07,27,15.60
2005,07,14,07,28,15.60
2005,07,14,07,29,15.60
2005,07,14,07,30,15.70
2005,07,14,07,31,15.80
2005,07,14,07,32,15.80
2005,07,14,07,33,15.80
2005,07,14,07,34,15.80
2005,07,14,07,35,15.90
2005,07,14,07,36,16.00
2005,07,14,07,37,16.10
2005,07,14,07,38,16.20
2005,07,14,07,39,16.20
2005,07,14,07,40,16.30
2005,07,14,07,41,16.40
2005,07,14,07,42,16.40
2005,07,14,07,43,16.50
2005,07,14,07,44,16.60
2005,07,14,07,45,16.70
2005,07,14,07,46,16.70
2005,07,14,07,47,16.80
2005,07,14,07,48,16.90
2005,07,14,07,49,16.90
2005,07,14,07,50,17.00
2005,07,14,07,51,17.00
2005,07,14,07,52,17.10
2005,07,14,07,53,17.10
2005,07,14,07,54,17.10
2005,07,14,07,55,17.10
2005,07,14,07,56,17.00
2005,07,14,07,57,17.00
2005,07,14,07,58,17.00
2005,07,14,07,59,17.00
2005,07,14,08,00,17.00
2005,07,14,08,01,16.90
2005,07,14,08,02,16.90
2005,07,14,08,03,16.90
2005,07,14,08,04,16.90
2005,07,14,08,05,16.90
2005,07,14,08,06,16.90
2005,07,14,08,07,16.90
2005,07,14,08,08,16.90
2005,07,14,08,09,16.90
2005,07,14,08,10,16.90
2005,07,14,08,11,17.00
2005,07,14,08,12,17.10
2005,07,14,08,13,17.10
2005,07,14,08,14,17.10
2005,07,14,08,15,17.20
2005,07,14,08,16,17.20
2005,07,14,08,17,17.30
2005,07,14,08,18,17.30
2005,07,14,08,19,17.30
2005,07,14,08,20,17.30
2005,07,14,08,21,17.40
2005,07,14,08,22,17.50
2005,07,14,08,23,17.50
2005,07,14,08,24,17.60
2005,07,14,08,25,17.70
2005,07,14,08,26,17.80
2005,07,14,08,27,17.80
2005,07,14,08,28,17.90
2005,07,14,08,29,17.90
2005,07,14,08,30,17.80
2005,07,14,08,31,17.70
2005,07,14,08,32,17.70
2005,07,14,08,33,17.70
2005,07,14,08,34,17.70
2005,07,14,08,35,17.70
2005,07,14,08,36,17.80
2005,07,14,08,37,17.80
2005,07,14,08,38,17.80
2005,07,14,08,39,17.80
2005,07,14,08,40,17.80
2005,07,14,08,41,17.80
2005,07,14,08,42,17.90
2005,07,14,08,43,17.90
2005,07,14,08,44,17.90
2005,07,14,08,45,18.00
2005,07,14,08,46,18.10
2005,07,14,08,47,18.20
2005,07,14,08,48,18.30
2005,07,14,08,49,18.40
2005,07,14,08,50,18.50
2005,07,14,08,51,18.50
2005,07,14,08,52,18.60
2005,07,14,08,53,18.60
2005,07,14,08,54,18.70
2005,07,14,08,55,18.80
2005,07,14,08,56,18.90
2005,07,14,08,57,19.00
2005,07,14,08,58,19.10
2005,07,14,08,59,19.10
2005,07,14,09,00,19.10
2005,07,14,09,01,19.10
2005,07,14,09,02,19.20
2005,07,14,09,03,19.20
2005,07,14,09,04,19.30
2005,07,14,09,05,19.40
2005,07,14,09,06,19.50
2005,07,14,09,07,19.50
2005,07,14,09,08,19.40
2005,07,14,09,09,19.30
2005,07,14,09,10,19.20
2005,07,14,09,11,19.10
2005,07,14,09,12,19.10
2005,07,14,09,13,19.10
2005,07,14,09,14,19.30
2005,07,14,09,15,19.40
2005,07,14,09,16,19.50
2005,07,14,09,17,19.40
2005,07,14,09,18,19.40
2005,07,14,09,19,19.40
2005,07,14,09,20,19.40
2005,07,14,09,21,19.50
2005,07,14,09,22,19.60
2005,07,14,09,23,19.70
2005,07,14,09,24,19.80
2005,07,14,09,25,19.90
2005,07,14,09,26,19.90
2005,07,14,09,27,20.00
2005,07,14,09,28,20.10
2005,07,14,09,29,20.10
2005,07,14,09,30,20.20
2005,07,14,09,31,20.30
2005,07,14,09,32,20.40
2005,07,14,09,33,20.30
2005,07,14,09,34,20.20
2005,07,14,09,35,20.20
2005,07,14,09,36,20.10
2005,07,14,09,37,20.10
2005,07,14,09,38,20.00
2005,07,14,09,39,19.90
2005,07,14,09,40,19.90
2005,07,14,09,41,19.90
2005,07,14,09,42,20.00
2005,07,14,09,43,20.10
2005,07,14,09,44,20.10
2005,07,14,09,45,20.10
2005,07,14,09,46,20.10
2005,07,14,09,47,20.10
2005,07,14,09,48,20.20
2005,07,14,09,49,20.00
2005,07,14,09,50,20.00
2005,07,14,09,51,20.10
2005,07,14,09,52,20.00
2005,07,14,09,53,19.90
2005,07,14,09,54,19.90
2005,07,14,09,55,19.90
2005,07,14,09,56,20.00
2005,07,14,09,57,20.20
2005,07,14,09,58,20.30
2005,07,14,09,59,20.40
2005,07,14,10,00,20.50
2005,07,14,10,01,20.70
2005,07,14,10,02,20.80
2005,07,14,10,03,20.80
2005,07,14,10,04,20.70
2005,07,14,10,05,20.70
2005,07,14,10,06,20.70
2005,07,14,10,07,20.70
2005,07,14,10,08,20.70
2005,07,14,10,09,20.60
2005,07,14,10,10,20.50
2005,07,14,10,11,20.50
2005,07,14,10,12,20.40
2005,07,14,10,13,20.30
2005,07,14,10,14,20.20
2005,07,14,10,15,20.20
2005,07,14,10,16,20.20
2005,07,14,10,17,20.40
2005,07,14,10,18,20.60
2005,07,14,10,19,20.60
2005,07,14,10,20,20.60
2005,07,14,10,21,20.50
2005,07,14,10,22,20.50
2005,07,14,10,23,20.40
2005,07,14,10,24,20.40
2005,07,14,10,25,20.30
2005,07,14,10,26,20.20
2005,07,14,10,27,20.20
2005,07,14,10,28,20.30
2005,07,14,10,29,20.30
2005,07,14,10,30,20.20
2005,07,14,10,31,20.20
2005,07,14,10,32,20.20
2005,07,14,10,33,20.10
2005,07,14,10,34,20.10
2005,07,14,10,35,20.20
2005,07,14,10,36,20.20
2005,07,14,10,37,20.20
2005,07,14,10,38,20.20
2005,07,14,10,39,20.20
2005,07,14,10,40,20.30
2005,07,14,10,41,20.50
2005,07,14,10,42,20.70
2005,07,14,10,43,20.70
2005,07,14,10,44,20.70
2005,07,14,10,45,20.80
2005,07,14,10,46,20.80
2005,07,14,10,47,20.70
2005,07,14,10,48,20.70
2005,07,14,10,49,20.80
2005,07,14,10,50,20.70
2005,07,14,10,51,20.60
2005,07,14,10,52,20.50
2005,07,14,10,53,20.60
2005,07,14,10,54,20.60
2005,07,14,10,55,20.60
2005,07,14,10,56,20.60
2005,07,14,10,57,20.70
2005,07,14,10,58,20.60
2005,07,14,10,59,20.70
2005,07,14,11,00,20.80
2005,07,14,11,01,20.90
2005,07,14,11,02,21.10
2005,07,14,11,03,21.20
2005,07,14,11,04,21.30
2005,07,14,11,05,21.20
2005,07,14,11,06,21.30
2005,07,14,11,07,21.30
2005,07,14,11,08,21.30
2005,07,14,11,09,21.10
2005,07,14,11,10,21.00
2005,07,14,11,11,21.00
2005,07,14,11,12,20.90
2005,07,14,11,13,21.00
2005,07,14,11,14,21.00
2005,07,14,11,15,21.00
2005,07,14,11,16,21.10
2005,07,14,11,17,21.00
2005,07,14,11,18,20.90
2005,07,14,11,19,20.90
2005,07,14,11,20,20.80
2005,07,14,11,21,20.80
2005,07,14,11,22,20.80
2005,07,14,11,23,20.90
2005,07,14,11,24,20.80
2005,07,14,11,25,20.80
2005,07,14,11,26,20.80
2005,07,14,11,27,20.80
2005,07,14,11,28,20.80
2005,07,14,11,29,20.80
2005,07,14,11,30,20.80
2005,07,14,11,31,20.80
2005,07,14,11,32,21.00
2005,07,14,11,33,21.00
2005,07,14,11,34,21.00
2005,07,14,11,35,21.10
2005,07,14,11,36,21.10
2005,07,14,11,37,21.00
2005,07,14,11,38,21.00
2005,07,14,11,39,21.10
2005,07,14,11,40,21.10
2005,07,14,11,41,21.10
2005,07,14,11,42,21.10
2005,07,14,11,43,21.10
2005,07,14,11,44,21.10
2005,07,14,11,45,21.10
2005,07,14,11,46,21.20
2005,07,14,11,47,21.20
2005,07,14,11,48,21.30
2005,07,14,11,49,21.40
2005,07,14,11,50,21.50
2005,07,14,11,51,21.60
2005,07,14,11,52,21.70
2005,07,14,11,53,21.70
2005,07,14,11,54,21.80
2005,07,14,11,55,21.90
2005,07,14,11,56,22.00
2005,07,14,11,57,22.00
2005,07,14,11,58,22.10
2005,07,14,11,59,22.20
2005,07,14,12,00,22.20
2005,07,14,12,01,22.20
2005,07,14,12,02,22.20
2005,07,14,12,03,22.10
2005,07,14,12,04,22.00
2005,07,14,12,05,21.90
2005,07,14,12,06,21.70
2005,07,14,12,07,21.70
2005,07,14,12,08,21.90
2005,07,14,12,09,21.90
2005,07,14,12,10,21.90
2005,07,14,12,11,21.80
2005,07,14,12,12,21.60
2005,07,14,12,13,21.60
2005,07,14,12,14,21.60
2005,07,14,12,15,21.70
2005,07,14,12,16,21.80
2005,07,14,12,17,21.80
2005,07,14,12,18,21.90
2005,07,14,12,19,21.90
2005,07,14,12,20,21.90
2005,07,14,12,21,22.00
2005,07,14,12,22,22.20
2005,07,14,12,23,22.20
2005,07,14,12,24,22.30
2005,07,14,12,25,22.30
2005,07,14,12,26,22.30
2005,07,14,12,27,22.40
2005,07,14,12,28,22.40
2005,07,14,12,29,22.40
2005,07,14,12,30,22.40
2005,07,14,12,31,22.40
2005,07,14,12,32,22.40
2005,07,14,12,33,22.30
2005,07,14,12,34,22.30
2005,07,14,12,35,22.40
2005,07,14,12,36,22.50
2005,07,14,12,37,22.50
2005,07,14,12,38,22.50
2005,07,14,12,39,22.60
2005,07,14,12,40,22.60
2005,07,14,12,41,22.60
2005,07,14,12,42,22.50
2005,07,14,12,43,22.50
2005,07,14,12,44,22.60
2005,07,14,12,45,22.60
2005,07,14,12,46,22.70
2005,07,14,12,47,22.60
2005,07,14,12,48,22.60
2005,07,14,12,49,22.80
2005,07,14,12,50,22.80
2005,07,14,12,51,22.90
2005,07,14,12,52,22.80
2005,07,14,12,53,22.60
2005,07,14,12,54,22.40
2005,07,14,12,55,22.30
2005,07,14,12,56,22.20
2005,07,14,12,57,22.10
2005,07,14,12,58,22.10
2005,07,14,12,59,22.10
2005,07,14,13,00,22.10
2005,07,14,13,01,22.10
2005,07,14,13,02,22.00
2005,07,14,13,03,22.00
2005,07,14,13,04,22.00
2005,07,14,13,05,21.90
2005,07,14,13,06,22.00
2005,07,14,13,07,22.30
2005,07,14,13,08,22.40
2005,07,14,13,09,22.50
2005,07,14,13,10,22.50
2005,07,14,13,11,22.60
2005,07,14,13,12,22.60
2005,07,14,13,13,22.60
2005,07,14,13,14,22.60
2005,07,14,13,15,22.60
2005,07,14,13,16,22.60
2005,07,14,13,17,22.60
2005,07,14,13,18,22.60
2005,07,14,13,19,22.70
2005,07,14,13,20,22.90
2005,07,14,13,21,22.90
2005,07,14,13,22,22.90
2005,07,14,13,23,22.90
2005,07,14,13,24,22.90
2005,07,14,13,25,22.90
2005,07,14,13,26,22.90
2005,07,14,13,27,23.10
2005,07,14,13,28,23.20
2005,07,14,13,29,23.30
2005,07,14,13,30,23.30
2005,07,14,13,31,23.30
2005,07,14,13,32,23.40
2005,07,14,13,33,23.40
2005,07,14,13,34,23.50
2005,07,14,13,35,23.50
2005,07,14,13,36,23.40
2005,07,14,13,37,23.30
2005,07,14,13,38,23.10
2005,07,14,13,39,22.90
2005,07,14,13,40,23.00
2005,07,14,13,41,23.10
2005,07,14,13,42,23.20
2005,07,14,13,43,23.30
2005,07,14,13,44,23.40
2005,07,14,13,45,23.50
2005,07,14,13,46,23.60
2005,07,14,13,47,23.70
2005,07,14,13,48,23.70
2005,07,14,13,49,23.70
2005,07,14,13,50,23.70
2005,07,14,13,51,23.60
2005,07,14,13,52,23.40
2005,07,14,13,53,23.30
2005,07,14,13,54,23.30
2005,07,14,13,55,23.20
2005,07,14,13,56,23.20
2005,07,14,13,57,23.20
2005,07,14,13,58,23.20
2005,07,14,13,59,23.30
2005,07,14,14,00,23.30
2005,07,14,14,01,23.40
2005,07,14,14,02,23.40
2005,07,14,14,03,23.50
2005,07,14,14,04,23.50
2005,07,14,14,05,23.30
2005,07,14,14,06,23.30
2005,07,14,14,07,23.30
2005,07,14,14,08,23.30
2005,07,14,14,09,23.40
2005,07,14,14,10,23.60
2005,07,14,14,11,23.70
2005,07,14,14,12,23.80
2005,07,14,14,13,23.90
2005,07,14,14,14,23.90
2005,07,14,14,15,24.00
2005,07,14,14,16,24.10
2005,07,14,14,17,23.80
2005,07,14,14,18,23.70
2005,07,14,14,19,23.60
2005,07,14,14,20,23.60
2005,07,14,14,21,23.60
2005,07,14,14,22,23.50
2005,07,14,14,23,23.40
2005,07,14,14,24,23.40
2005,07,14,14,25,23.30
2005,07,14,14,26,23.40
2005,07,14,14,27,23.30
2005,07,14,14,28,23.30
2005,07,14,14,29,23.30
2005,07,14,14,30,23.50
2005,07,14,14,31,23.60
2005,07,14,14,32,23.70
2005,07,14,14,33,23.70
2005,07,14,14,34,23.60
2005,07,14,14,35,23.50
2005,07,14,14,36,23.40
2005,07,14,14,37,23.50
2005,07,14,14,38,23.60
2005,07,14,14,39,23.60
2005,07,14,14,40,23.60
2005,07,14,14,41,23.60
2005,07,14,14,42,23.70
2005,07,14,14,43,23.80
2005,07,14,14,44,24.10
2005,07,14,14,45,24.20
2005,07,14,14,46,24.20
2005,07,14,14,47,24.00
2005,07,14,14,48,23.80
2005,07,14,14,49,23.70
2005,07,14,14,50,23.60
2005,07,14,14,51,23.60
2005,07,14,14,52,23.50
2005,07,14,14,53,23.50
2005,07,14,14,54,23.60
2005,07,14,14,55,23.70
2005,07,14,14,56,23.70
2005,07,14,14,57,23.70
2005,07,14,14,58,23.60
2005,07,14,14,59,23.60
2005,07,14,15,00,23.60
2005,07,14,15,01,23.70
2005,07,14,15,02,23.70
2005,07,14,15,03,23.80
2005,07,14,15,04,23.80
2005,07,14,15,05,23.70
2005,07,14,15,06,23.40
2005,07,14,15,07,23.30
2005,07,14,15,08,23.50
2005,07,14,15,09,23.70
2005,07,14,15,10,23.70
2005,07,14,15,11,23.70
2005,07,14,15,12,23.70
2005,07,14,15,13,23.80
2005,07,14,15,14,24.00
2005,07,14,15,15,24.10
2005,07,14,15,16,24.20
2005,07,14,15,17,24.20
2005,07,14,15,18,24.20
2005,07,14,15,19,24.20
2005,07,14,15,20,23.90
2005,07,14,15,21,23.70
2005,07,14,15,22,23.70
2005,07,14,15,23,23.70
2005,07,14,15,24,23.70
2005,07,14,15,25,23.70
2005,07,14,15,26,23.70
2005,07,14,15,27,23.70
2005,07,14,15,28,23.70
2005,07,14,15,29,23.80
2005,07,14,15,30,23.90
2005,07,14,15,31,24.10
2005,07,14,15,32,24.20
2005,07,14,15,33,24.40
2005,07,14,15,34,24.40
2005,07,14,15,35,24.40
2005,07,14,15,36,24.30
2005,07,14,15,37,24.10
2005,07,14,15,38,23.90
2005,07,14,15,39,23.70
2005,07,14,15,40,23.70
2005,07,14,15,41,23.70
2005,07,14,15,42,23.70
2005,07,14,15,43,23.60
2005,07,14,15,44,23.50
2005,07,14,15,45,23.30
2005,07,14,15,46,23.30
2005,07,14,15,47,23.30
2005,07,14,15,48,23.30
2005,07,14,15,49,23.30
2005,07,14,15,50,23.10
2005,07,14,15,51,22.90
2005,07,14,15,52,22.70
2005,07,14,15,53,22.60
2005,07,14,15,54,22.50
2005,07,14,15,55,22.30
2005,07,14,15,56,22.00
2005,07,14,15,57,21.90
2005,07,14,15,58,21.70
2005,07,14,15,59,21.60
2005,07,14,16,00,21.70
2005,07,14,16,01,21.60
2005,07,14,16,02,21.50
2005,07,14,16,03,21.40
2005,07,14,16,04,21.40
2005,07,14,16,05,21.30
2005,07,14,16,06,21.20
2005,07,14,16,07,21.20
2005,07,14,16,08,21.30
2005,07,14,16,09,21.30
2005,07,14,16,10,21.50
2005,07,14,16,11,21.60
2005,07,14,16,12,21.80
2005,07,14,16,13,22.00
2005,07,14,16,14,22.10
2005,07,14,16,15,22.10
2005,07,14,16,16,22.20
2005,07,14,16,17,22.30
2005,07,14,16,18,22.30
2005,07,14,16,19,22.40
2005,07,14,16,20,22.50
2005,07,14,16,21,22.60
2005,07,14,16,22,22.60
2005,07,14,16,23,22.60
2005,07,14,16,24,22.60
2005,07,14,16,25,22.70
2005,07,14,16,26,22.60
2005,07,14,16,27,22.50
2005,07,14,16,28,22.40
2005,07,14,16,29,22.30
2005,07,14,16,30,22.30
2005,07,14,16,31,22.20
2005,07,14,16,32,22.10
2005,07,14,16,33,22.10
2005,07,14,16,34,22.20
2005,07,14,16,35,22.30
2005,07,14,16,36,22.30
2005,07,14,16,37,22.40
2005,07,14,16,38,22.40
2005,07,14,16,39,22.50
2005,07,14,16,40,22.50
2005,07,14,16,41,22.50
2005,07,14,16,42,22.50
2005,07,14,16,43,22.40
2005,07,14,16,44,22.30
2005,07,14,16,45,22.30
2005,07,14,16,46,22.40
2005,07,14,16,47,22.40
2005,07,14,16,48,22.50
2005,07,14,16,49,22.60
2005,07,14,16,50,22.70
2005,07,14,16,51,22.70
2005,07,14,16,52,22.80
2005,07,14,16,53,22.80
2005,07,14,16,54,22.80
2005,07,14,16,55,22.80
2005,07,14,16,56,22.90
2005,07,14,16,57,22.90
2005,07,14,16,58,22.90
2005,07,14,16,59,22.90
2005,07,14,17,00,22.90
2005,07,14,17,01,23.00
2005,07,14,17,02,23.10
2005,07,14,17,03,23.20
2005,07,14,17,04,23.20
2005,07,14,17,05,23.30
2005,07,14,17,06,23.50
2005,07,14,17,07,23.60
2005,07,14,17,08,23.70
2005,07,14,17,09,23.60
2005,07,14,17,10,23.60
2005,07,14,17,11,23.70
2005,07,14,17,12,23.70
2005,07,14,17,13,23.70
2005,07,14,17,14,23.60
2005,07,14,17,15,23.40
2005,07,14,17,16,23.30
2005,07,14,17,17,23.20
2005,07,14,17,18,23.20
2005,07,14,17,19,23.20